Flag for Germany Weather past 2 weeks in Radebeul, Saxony, Germany

Now
72 °F

Passing clouds.


Feels Like: 77 °F
Forecast: 57 / 83 °F
Wind: 2 mph from Southeast

Location: Dresden-Klotzsche

Current Time: Aug 1, 2015 at 10:35:10 PM

Latest Report: Aug 1, 2015 at 10:00 PM


Visibility: 19 mi

Pressure: 29.98 "Hg

Humidity: 41%

Dew point: 47 °F

Location of RadebeulLocation

Historic Weather in Radebeul — Graph

°F

Radebeul temperature yesterday

Maximum temperature yesterday: 68 °F (at 6:00 PM)
Minimum temperature yesterday: 52 °F (at 4:00 AM)
Average temperature yesterday: 60 °F

Past Weeks' High & Low Weather Summary

 TemperatureHumidityPressure
High91 °F (Jul 22, 4:00 PM)99% (Jul 23, 3:00 AM)30.11 "Hg (Jul 23, 3:00 AM)
Low51 °F (Aug 1, 4:00 AM)26% (Aug 1, 3:00 PM)29.59 "Hg (Jul 27, 3:00 PM)
Average69 °F61%29.87 "Hg
* Reported Jul 17 8:00 PM — Aug 1 8:00 PM, Radebeul, Weather by CustomWeather, © 2015

Note: Actual official high and low records may vary slightly from our data, if they occured in-between our weather recording intervals... More about our weather records

Advertising

Radebeul weather history for previous 24 hours

 ConditionsComfort  
Time TempWeatherWind HumidityBarometerVisibility
8:00 PM
Sat, Aug 1
76 °FOvercast.6 mph34%29.94 "Hg22 mi
7:00 PM78 °FPartly sunny.6 mph30%29.94 "Hg22 mi
6:00 PM78 °FPartly sunny.6 mph31%29.95 "Hg22 mi
5:00 PM77 °FPartly sunny.5 mph32%29.95 "Hg31 mi
4:00 PM77 °FPartly sunny.5 mph27%29.95 "Hg37 mi
3:00 PM77 °FPartly sunny.6 mph26%29.97 "Hg40 mi
2:00 PM76 °FOvercast.6 mph31%29.98 "Hg37 mi
1:00 PM74 °FOvercast.5 mph33%29.99 "Hg37 mi
12:00 PM73 °FOvercast.5 mph36%30.00 "Hg37 mi
11:00 AM71 °FOvercast.6 mph41%30.01 "Hg34 mi
10:00 AM67 °FOvercast.6 mph46%30.01 "Hg34 mi
9:00 AM62 °FOvercast.5 mph59%30.01 "Hg34 mi
8:00 AM56 °FOvercast.2 mph68%30.04 "Hg34 mi
7:00 AM52 °FOvercast.1 mph79%30.05 "Hg28 mi
4:00 AM51 °FPassing clouds.2 mph73%30.09 "Hg25 mi
3:00 AM53 °FPassing clouds.2 mph71%30.09 "Hg25 mi
2:00 AM55 °FPassing clouds.1 mph65%30.08 "Hg25 mi
1:00 AM55 °FPassing clouds.2 mph65%30.08 "Hg25 mi
12:00 AM55 °FPassing clouds.3 mph62%30.08 "Hg22 mi
11:00 PM
Fri, Jul 31
N/APassing clouds.29 mphN/AN/A2 mi
10:00 PM59 °FPassing clouds.3 mph56%30.08 "Hg25 mi
Weather by CustomWeather, © 2015

See weather overviewHow to use our weather pages